Location: Caltech
(34.1382°N, 118.1253°W)
Time: 07:33:06
(UTC-07:00)

HO-68 - Visible Passes

Search period start: 25 October 2014 00:00
Search period end: 03 November 2014 23:00
Orbit: 1193 x 1204 km, 100.2° (Epoch: 25 October)

Date Brightness Start Highest point End Pass type
(mag) Time Alt. Az. Time Alt. Az. Time Alt. Az.
25 Oct ? 20:43:24 29° N 20:43:24 29° N 20:46:49 10° N visible
25 Oct ? 22:32:52 12° NW 22:32:52 12° NW 22:33:34 10° NW visible
26 Oct ? 20:26:23 26° NNE 20:26:23 26° NNE 20:29:40 10° N visible
26 Oct ? 22:15:50 16° NW 22:15:50 16° NW 22:17:13 10° NW visible
27 Oct ? 20:09:21 22° NNE 20:09:21 22° NNE 20:12:24 10° N visible
27 Oct ? 21:58:49 19° NW 21:58:49 19° NW 22:00:40 10° NNW visible
28 Oct ? 19:52:20 18° NNE 19:52:20 18° NNE 19:54:59 10° NNE visible
28 Oct ? 21:41:47 21° NNW 21:41:47 21° NNW 21:43:58 10° NNW visible
29 Oct ? 19:35:18 15° NE 19:35:18 15° NE 19:37:18 10° NNE visible
29 Oct ? 21:24:46 23° NNW 21:24:46 23° NNW 21:27:09 10° NNW visible
30 Oct ? 19:18:16 11° NE 19:18:16 11° NE 19:19:02 10° NE visible
30 Oct ? 21:07:44 24° N 21:07:44 24° N 21:10:15 10° N visible
31 Oct ? 20:50:42 24° N 20:50:42 24° N 20:53:15 10° N visible
01 Nov ? 20:33:40 22° N 20:33:40 22° N 20:36:09 10° N visible
01 Nov ? 22:23:07 11° NW 22:23:07 11° NW 22:23:23 10° NW visible
02 Nov ? 19:16:38 20° NNE 19:16:38 20° NNE 19:18:56 10° N visible
02 Nov ? 21:06:05 14° NNW 21:06:05 14° NNW 21:06:54 10° NNW visible
03 Nov ? 18:59:35 17° NNE 18:59:35 17° NNE 19:01:35 10° NNE visible
03 Nov ? 20:49:03 16° NNW 20:49:03 16° NNW 20:50:16 10° NNW visible
